Location: Newark
(44.6028°N, 124.0883°W)
Time: 10:35:22
(UTC+00:00)

A-11 Canister half - Pass Details

Date: 24 October 2019
Orbit: 1514 x 1686 km, 47.2° (Epoch: 13 November)

Event Time Altitude Azimuth Distance (km) Brightness Sun altitude
Exits shadow 10:21:33 51° 74° (ENE) 1,966 9.6 -45.4°
Drops below altitude 10° 10:28:08 10° 72° (ENE) 3,790 11.6 -44.5°
Sets 10:31:10 0° 72° (ENE) 4,753 12.3 -44.0°
